Volver al catálogo

COSMOS 2424

GLONASS

ActivoNavegaciónMEO
NORAD 29672·PAYLOAD·🇷🇺 Russia

Lanzado Dec 25, 2006 desde Baikonur Cosmodrome

Loading…

Próximos Pases (próximas 24 horas)

TLE

ActualizadoSource: Space-Track

Época: Sep 14, 2026, 12:14 UTC

1 29672U 06062C   26257.51026550  .00000021  00000-0  00000-0 0  9999
2 29672  64.6980 191.3305 0019334 176.1743 183.8435  2.13122867153487

Sigue COSMOS 2424 en tiempo real con AllMySat

Download on the App Store